Regional Weather Roundup
Issued by NWS

Home | Current Version | Previous Version | Text Only | Print | Product List | Glossary Off
Versions: 1 2 3 4 5 6 7 8 9 10 11 12 13 14 15 16 17 18 19 20 21 22 23 24 25 26 27 28 29 30 31 32 33 34 35 36 37 38 39 40 41 42 43 44 45 46 47 48 49 50

000
ASUS44 KMEG 230910
RWRTN
TENNESSEE HOURLY STATE WEATHER ROUNDUP
NATIONAL WEATHER SERVICE MEMPHIS TN
400 AM CDT SUN JUL 23 2017

TNZ002-004-019-021-049-052-054-088>092-231000-
WEST TENNESSEE

CITY           SKY/WX    TMP DP  RH WIND       PRES   REMARKS
MEMPHIS INTL   CLEAR     78  74  87 SW3       29.89S
NWS MEMPHIS      N/A     78 N/A N/A MISG        N/A
JACKSON        CLEAR     78  75  90 SW8       29.88S
SOMERVILLE       N/A     77  73  88 S6        29.89R
COVINGTON      CLEAR     77  75  94 CALM      29.88R
UNION CITY     CLEAR     77  75  94 S6        29.84F
BOLIVAR        CLEAR     75  73  94 S3        29.90R
PARIS          CLEAR     75  73  94 SW3       29.86S
HUNTINGDON     CLEAR     79  73  83 SW6       29.86S
LEXINGTON      CLEAR     73  72  94 CALM      29.89S
SELMER         CLEAR     73  72  94 SW6       29.90S
SAVANNAH       CLEAR     72  70  94 CALM      29.89F
$$

TNZ008-025-027-028-033-062-065-066-231000-
NORTH MIDDLE TENNESSEE

CITY           SKY/WX    TMP DP  RH WIND       PRES   REMARKS
NASHVILLE      CLEAR     80  71  74 SW3       29.90R
PORTLAND         N/A     79  73  83 S5        29.88R
CLARKSVILLE    CLEAR     79  73  82 SW6       29.86S
SMYRNA         CLEAR     78  73  84 SE3       29.90S
COOKEVILLE     CLEAR     75  73  94 CALM      29.92R
GALLATIN       CLEAR     79  73  83 CALM      29.91R
CROSSVILLE     CLEAR     73  70  90 SW5       29.97F
$$

TNZ061-075-076-078-094-096-097-231000-
SOUTH MIDDLE TENNESSEE

CITY           SKY/WX    TMP DP  RH WIND       PRES   REMARKS
FAYETTEVILLE   CLEAR     75  73  94 CALM      29.93R
TULLAHOMA      CLEAR     73  72  94 CALM      29.95R
WINCHESTER     CLEAR     73  72  94 CALM      29.94R
MCMINNVILLE    CLEAR     75  75 100 CALM      29.93S
COLUMBIA       CLEAR     75  72  88 SW6       29.88S
SHELBYVILLE    CLEAR     73  72  94 CALM      29.92R
$$

TNZ017-018-042-046-047-231000-
NORTHEAST TENNESSEE

CITY           SKY/WX    TMP DP  RH WIND       PRES   REMARKS
TRI CITIES     MOCLDY    72  71  97 CALM      29.94S THUNDER
ELIZABETHTON   CLOUDY    72  72 100 CALM      29.95R
$$

TNZ012-013-036-069-073-074-231000-
CENTRAL EAST TENNESSEE

CITY           SKY/WX    TMP DP  RH WIND       PRES   REMARKS
KNOXVILLE      CLEAR     78  73  84 SW8       29.91F
OAK RIDGE      CLEAR     78  73  84 S3        29.93S
DOWNTOWN KNOXV CLEAR     79  75  89 CALM      29.90S
GATLINBURG     PTCLDY    79  70  73 SW6       29.91F
MORRISTOWN     CLEAR     79  73  83 W8        29.92F
JACKSBORO        N/A     73  73 100 CALM      29.95S FOG
$$

TNZ083-085-099-231000-
SOUTHEAST TENNESSEE

CITY           SKY/WX    TMP DP  RH WIND       PRES   REMARKS
CHATTANOOGA    PTCLDY    79  74  84 CALM      29.92F
DAYTON         CLOUDY    77  75  94 CALM      29.90S
$$

SKY/WX REPORTED AS FAIR MEANS FEW OR NO CLOUDS BELOW
12 THOUSAND FEET.




USA.gov is the U.S. government's official web portal to all federal, state and local government web resources and services.